IZ2MHJ-3 Weather Reports


Display with metric or nautical units.
time (UTC)temp
F
wind
direction
speed
MPH
gust
MPH
rain 1hr
in
rain 24hr
in
rain mn
in
humidity
%
barometer
mb
20260902175903 84 0.0 0.0 0.00 0.00 0.00 52 1017.5
20260902173903 85 0.0 0.0 0.00 0.00 0.00 50 1017.3
20260902171903 87 0.0 0.0 0.00 0.00 0.00 48 1017.2
20260902165902 88 0.0 0.0 0.00 0.00 0.00 48 1017.2
20260902163902 91 0.0 0.0 0.00 0.00 0.00 43 1017.0
20260902161902 94 0.0 0.0 0.00 0.00 0.00 41 1017.0
20260902155901 93 0.0 0.0 0.00 0.00 0.00 41 1017.1
20260902153901 94 0.0 0.0 0.00 0.00 0.00 40 1017.2
20260902151902 94 0.0 0.0 0.00 0.00 0.00 41 1017.2
20260902145901 96 0.0 0.0 0.00 0.00 0.00 38 1017.4
20260902143901 96 0.0 0.0 0.00 0.00 0.00 39 1017.5
20260902141901 98 0.0 0.0 0.00 0.00 0.00 38 1017.5
20260902135900 96 0.0 0.0 0.00 0.00 0.00 38 1017.8
20260902133859 98 0.0 0.0 0.00 0.00 0.00 37 1018.1
20260902131859 97 0.0 0.0 0.00 0.00 0.00 39 1018.3
20260902125859 98 0.0 0.0 0.00 0.00 0.00 39 1018.4
20260902123859 97 0.0 0.0 0.00 0.00 0.00 39 1018.7
20260902121858 95 0.0 0.0 0.00 0.00 0.00 40 1018.9
20260902115858 93 0.0 0.0 0.00 0.00 0.00 43 1019.2
20260902113858 96 0.0 0.0 0.00 0.00 0.00 40 1019.2
20260902111858 93 0.0 0.0 0.00 0.00 0.00 41 1019.4
20260902105857 89 0.0 0.0 0.00 0.00 0.00 44 1019.9
20260902103857 90 0.0 0.0 0.00 0.00 0.00 44 1020.1
20260902101856 92 0.0 0.0 0.00 0.00 0.00 39 1020.1
20260902095856 90 0.0 0.0 0.00 0.00 0.00 41 1020.5
20260902093856 86 0.0 0.0 0.00 0.00 0.00 47 1020.7
20260902091856 88 0.0 0.0 0.00 0.00 0.00 44 1020.5
20260902085856 88 0.0 0.0 0.00 0.00 0.00 43 1020.6
20260902083855 92 0.0 0.0 0.00 0.00 0.00 40 1020.6
20260902081855 89 0.0 0.0 0.00 0.00 0.00 44 1020.5
20260902075854 89 0.0 0.0 0.00 0.00 0.00 43 1020.4
20260902073853 89 0.0 0.0 0.00 0.00 0.00 45 1020.4
20260902071853 86 0.0 0.0 0.00 0.00 0.00 50 1020.4
20260902065853 84 0.0 0.0 0.00 0.00 0.00 53 1020.4
20260902063853 80 0.0 0.0 0.00 0.00 0.00 61 1020.6
20260902061852 78 0.0 0.0 0.00 0.00 0.00 63 1020.7
20260902055852 76 0.0 0.0 0.00 0.00 0.00 67 1020.6
20260902053852 75 0.0 0.0 0.00 0.00 0.00 68 1020.5
20260902051851 74 0.0 0.0 0.00 0.00 0.00 70 1020.6
20260902045851 73 0.0 0.0 0.00 0.00 0.00 73 1020.4
20260902043852 72 0.0 0.0 0.00 0.00 0.00 74 1020.3
20260902041851 73 0.0 0.0 0.00 0.00 0.00 72 1020.2
20260902035850 73 0.0 0.0 0.00 0.00 0.00 74 1020.2
20260902033850 72 0.0 0.0 0.00 0.00 0.00 74 1020.2
20260902031849 73 0.0 0.0 0.00 0.00 0.00 73 1020.1
20260902025849 73 0.0 0.0 0.00 0.00 0.00 73 1020.2
20260902023849 73 0.0 0.0 0.00 0.00 0.00 73 1020.1
20260902021849 74 0.0 0.0 0.00 0.00 0.00 71 1020.0
20260902015849 73 0.0 0.0 0.00 0.00 0.00 72 1020.0
20260902013848 74 0.0 0.0 0.00 0.00 0.00 71 1019.9
20260902011848 74 0.0 0.0 0.00 0.00 0.00 71 1020.0
20260902005847 74 0.0 0.0 0.00 0.00 0.00 71 1019.9
20260902003847 74 0.0 0.0 0.00 0.00 0.00 71 1020.0
20260902001847 75 0.0 0.0 0.00 0.00 0.00 70 1019.9
20260901235847 76 0.0 0.0 0.00 0.00 0.00 70 1019.9
20260901233846 76 0.0 0.0 0.00 0.00 0.00 68 1019.9
20260901231846 75 0.0 0.0 0.00 0.00 0.00 70 1019.9
20260901225845 77 0.0 0.0 0.00 0.00 0.00 68 1019.9
20260901223845 77 0.0 0.0 0.00 0.00 0.00 67 1019.8
20260901221845 77 0.0 0.0 0.00 0.00 0.00 67 1019.8
20260901215845 77 0.0 0.0 0.00 0.00 0.00 67 1019.8
20260901213844 78 0.0 0.0 0.00 0.00 0.00 65 1019.7
20260901211844 79 0.0 0.0 0.00 0.00 0.00 63 1019.6
20260901205948 80 0.0 0.0 0.00 0.00 0.00 64 1019.7
20260901203947 80 0.0 0.0 0.00 0.00 0.00 62 1019.6
20260901201947 81 0.0 0.0 0.00 0.00 0.00 60 1019.4
20260901195947 82 0.0 0.0 0.00 0.00 0.00 59 1019.2
20260901193946 82 0.0 0.0 0.00 0.00 0.00 61 1019.1
20260901191946 83 0.0 0.0 0.00 0.00 0.00 59 1018.9
20260901185946 83 0.0 0.0 0.00 0.00 0.00 58 1018.6
20260901183945 84 0.0 0.0 0.00 0.00 0.00 58 1018.4
20260901181945 85 0.0 0.0 0.00 0.00 0.00 54 1018.1